COSMOS 1275 DEB, 13811

Orbit data source: Space-Track

COSMOS 1275 DEB, 13811 is space debris in LEO originally from a launch on Thu, 04 Jun 1981 UTC launched from the Plesetsk Missile And Space Complex (PKMTR). Debris objects in space refer to the collection of defunct objects orbiting the Earth. Examples of debris include non-operational satellites, rocket bodies, and fragments generated from explosions, collisions, or faulty payload assembly.

Loading next visibility...
Identifier
13811, 1981-053HF
Orbit
LEO
Country
Flag of CISCIS
Related business
Manufacturer
Unknown
Mission
Spacecraft
Bus & Motor
Unknown
Mass
Unknown
Launch date (UTC)
1981-06-04 (45 years ago)
Launch vehicle
Unknown
Launch site
Plesetsk Missile And Space Complex (PKMTR)
Object type
Payload
Rocket body
Debris
Shape & HBR
Unknown shape, 0.1 m
Radar Cross Section
Small (<0.1 m²)

Expand to show TLE details & history
Last TLE update: 2 days ago

TLE from 2 days ago
0 COSMOS 1275 DEB
1 13811U 81053HF  26234.86877897  .00001810  00000-0  90335-3 0  9991
2 13811  82.9367 174.5940 0009241 293.6657 121.7808 14.16384774223947
Epoch: 2026-08-22T20:51Z
TLE epoch observation values (Epoch: 2026-08-22T20:51:02.503Z)
Latitude
55.00705°
Longitude
-99.19859°
Altitude
850.242 km
Speed
7.431 km/s
True Right ascension
12h 18m 56s
True Declination
54° 50' 51"
Sunlit
Object was in daylight at epoch
Visualization orbit readout
Latitude
Unknown
Longitude
Unknown
Altitude
Unknown
Speed
Unknown
Apparent Right ascension
Unknown
Apparent Declination
Unknown
Sunlit
N/A
Visualization observer readout
Local Sidereal Time
02:29:48
Azimuth
Unknown
Elevation
Unknown
Doppler factor
Unknown
Orbital elements
Apogee altitude
841.363 km
Perigee altitude
828.032 km
Semi-major axis
7,212.834 km
Eccentricity
0.00092
Inclination
82.9367°
RAAN
174.594°
Arg. of periapsis
293.6657°
True anomaly
121.87076°
Mean anomaly
121.7808°
Eccentric anomaly
121.82579°
Mean motion
3.54311 °/min
Orbital period
101.61 mins
BSTAR
0.00090335
Loading maneuver chart data...
Computing Atmospheric mass density...

Documentation

Showing up to 5 results
|